Location: Center Berlin
(42.6609°N, 73.3687°W)
Time: 22:08:32
(UTC+00:00)

Cosmos 1328 Rocket - Pass Details

Date: 10 September 2024
Orbit: 597 x 622 km, 82.5° (Epoch: 13 October)

Event Time Altitude Azimuth Distance (km) Brightness Sun altitude
Rises 23:44:17 0° 2° (N) 2,851 7.1 -6.8°
Reaches altitude 10° 23:46:46 10° 14° (NNE) 1,944 6.1 -7.3°
Maximum altitude 23:50:28 28° 74° (ENE) 1,132 4.4 -7.9°
Drops below altitude 10° 23:54:11 10° 135° (SE) 1,935 5.6 -8.6°
Enters shadow 23:55:10 - 141° (SE) 2,287 6.0 -8.8°
